FW8889 Weather Reports


time (UTC)temp
C
wind
direction
speed
KPH
gust
KPH
rain 1hr
cm
rain 24hr
cm
rain mn
cm
humidity
%
barometer
mb
20260831011613 23 0 0.0 1.6 0.00 0.00 0.00 69 1017.1
20260831010056 23 0 0.0 3.2 0.00 0.00 0.00 68 1016.9
20260831004553 23 240 0.0 4.8 0.00 0.00 0.00 67 1016.6
20260831003055 23 0 0.0 3.2 0.00 0.00 0.00 66 1016.6
20260831001605 23 0 0.0 3.2 0.00 0.00 0.00 64 1016.4
20260831000055 23 0 0.0 1.6 0.00 0.00 0.00 63 1016.3
20260830234552 23 0 0.0 1.6 0.00 0.00 0.00 62 1016.1
20260830233059 23 0 0.0 4.8 0.00 0.00 0.00 61 1016.1
20260830231601 24 0 0.0 1.6 0.00 0.00 0.00 60 1016.1
20260830230053 24 0 0.0 3.2 0.00 0.00 0.00 59 1016.1
20260830224621 24 338 0.0 3.2 0.00 0.00 0.00 57 1016.5
20260830223057 25 338 0.0 3.2 0.00 0.00 0.00 58 1016.5
20260830221602 25 259 0.0 6.4 0.00 0.00 0.00 58 1016.6
20260830220058 25 0 0.0 3.2 0.00 0.00 0.00 57 1016.5
20260830214604 25 0 0.0 3.2 0.00 0.00 0.00 58 1016.5
20260830213054 25 0 0.0 4.8 0.00 0.00 0.00 59 1016.6
20260830211554 25 150 0.0 4.8 0.00 0.00 0.00 58 1016.7
20260830210055 25 23 1.6 6.4 0.00 0.00 0.00 56 1016.8
20260830204556 26 348 1.6 9.7 0.00 0.00 0.00 54 1016.8
20260830203053 26 50 0.0 4.8 0.00 0.00 0.00 54 1017.0
20260830201552 26 0 1.6 8.0 0.00 0.00 0.00 51 1017.1
20260830200052 26 0 1.6 6.4 0.00 0.00 0.00 52 1017.0
20260830194551 26 95 0.0 1.6 0.00 0.00 0.00 55 1017.2
20260830193056 26 95 0.0 4.8 0.00 0.00 0.00 51 1017.7
20260830191555 27 0 0.0 4.8 0.00 0.00 0.00 51 1017.8
20260830190051 27 0 1.6 9.7 0.00 0.00 0.00 49 1017.8
20260830184601 28 115 1.6 4.8 0.00 0.00 0.00 47 1017.9
20260830183053 27 30 1.6 9.7 0.00 0.00 0.00 47 1018.3
20260830181554 27 130 3.2 8.0 0.00 0.00 0.00 51 1018.5
20260830180054 26 148 1.6 4.8 0.00 0.00 0.00 52 1018.7
20260830174606 26 0 0.0 11.3 0.00 0.00 0.00 55 1018.8
20260830173056 26 166 1.6 8.0 0.00 0.00 0.00 50 1019.0
20260830171613 26 42 1.6 11.3 0.00 0.00 0.00 55 1018.9
20260830170052 26 155 1.6 9.7 0.00 0.00 0.00 53 1019.0
20260830164603 26 129 1.6 8.0 0.00 0.00 0.00 51 1019.1
20260830163056 26 134 1.6 6.4 0.00 0.00 0.00 51 1019.1
20260830161555 26 82 1.6 6.4 0.00 0.00 0.00 55 1018.9
20260830160054 26 245 1.6 9.7 0.00 0.00 0.00 55 1019.1
20260830154547 26 130 0.0 6.4 0.00 0.00 0.00 55 1019.1
20260830153055 25 0 1.6 4.8 0.00 0.00 0.00 58 1019.3
20260830151549 25 242 0.0 4.8 0.00 0.00 0.00 61 1019.6
20260830150059 25 130 1.6 4.8 0.00 0.00 0.00 58 1019.6
20260830144555 24 0 1.6 6.4 0.00 0.00 0.00 58 1019.6
20260830143109 23 261 0.0 4.8 0.00 0.00 0.00 61 1019.7
20260830141558 22 0 0.0 4.8 0.00 0.00 0.00 62 1019.9
20260830140100 22 0 0.0 4.8 0.00 0.00 0.00 65 1020.1
20260830134552 21 0 0.0 3.2 0.00 0.00 0.00 66 1020.1
20260830133055 21 24 0.0 4.8 0.00 0.00 0.00 68 1020.2
20260830131600 20 0 0.0 3.2 0.00 0.00 0.00 71 1020.4
20260830130106 19 0 0.0 4.8 0.00 0.00 0.00 73 1020.5
20260830124553 18 0 0.0 3.2 0.00 0.00 0.00 76 1020.7
20260830123106 17 0 0.0 1.6 0.00 0.00 0.00 78 1020.7
20260830121602 17 0 0.0 1.6 0.00 0.00 0.00 80 1020.9
20260830120057 16 0 0.0 3.2 0.00 0.00 0.00 80 1020.9
20260830114605 16 0 0.0 1.6 0.00 0.00 0.00 80 1021.0
20260830113058 16 0 0.0 3.2 0.00 0.00 0.00 80 1021.1
20260830111555 16 0 0.0 3.2 0.00 0.00 0.00 81 1021.0
20260830110051 15 0 0.0 1.6 0.00 0.00 0.00 82 1021.1
20260830104559 16 0 0.0 1.6 0.00 0.00 0.00 83 1020.9
20260830103057 16 0 0.0 0.0 0.00 0.00 0.00 83 1020.9
20260830101558 15 0 0.0 1.6 0.00 0.00 0.00 83 1021.0
20260830100053 15 0 0.0 1.6 0.00 0.00 0.00 84 1020.9
20260830094548 15 0 0.0 0.0 0.00 0.00 0.00 83 1021.0
20260830093057 15 0 0.0 0.0 0.00 0.00 0.00 84 1020.8
20260830091554 15 0 0.0 1.6 0.00 0.00 0.00 84 1021.2
20260830090057 15 0 0.0 1.6 0.00 0.00 0.00 85 1021.3
20260830084602 15 105 0.0 1.6 0.00 0.00 0.00 85 1021.5
20260830083053 14 0 0.0 0.0 0.00 0.00 0.00 86 1021.7
20260830081606 14 0 0.0 0.0 0.00 0.00 0.00 86 1021.6
20260830080056 14 0 0.0 0.0 0.00 0.00 0.00 86 1021.5
20260830074608 13 0 0.0 0.0 0.00 0.00 0.00 86 1021.4
20260830073053 13 0 0.0 0.0 0.00 0.00 0.00 86 1021.5
20260830071555 13 0 0.0 0.0 0.00 0.00 0.00 86 1021.4
20260830070056 13 0 0.0 0.0 0.00 0.00 0.00 86 1021.4
20260830064554 13 0 0.0 0.0 0.00 0.00 0.00 86 1021.4
20260830063054 13 0 0.0 0.0 0.00 0.00 0.00 86 1021.5
20260830061550 13 0 0.0 0.0 0.00 0.00 0.00 86 1021.5
20260830060101 13 0 0.0 0.0 0.00 0.00 0.00 86 1021.8
20260830054555 13 0 0.0 0.0 0.00 0.00 0.00 86 1021.7
20260830053052 13 0 0.0 0.0 0.00 0.00 0.00 86 1021.7
20260830051551 13 0 0.0 0.0 0.00 0.00 0.00 86 1021.8
20260830050057 14 0 0.0 0.0 0.00 0.00 0.00 86 1021.7
20260830044604 14 0 0.0 0.0 0.00 0.00 0.00 86 1021.7
20260830043054 14 0 0.0 0.0 0.00 0.00 0.00 86 1021.7
20260830041609 15 0 0.0 0.0 0.00 0.00 0.00 86 1021.6
20260830040107 15 0 0.0 0.0 0.00 0.00 0.00 86 1021.8
20260830034603 15 0 0.0 0.0 0.00 0.00 0.00 86 1021.8
20260830033102 15 0 0.0 0.0 0.00 0.00 0.00 86 1021.9
20260830031559 15 0 0.0 0.0 0.00 0.00 0.00 85 1021.9
20260830030131 16 0 0.0 0.0 0.00 0.00 0.00 85 1021.9
20260830024601 16 0 0.0 0.0 0.00 0.00 0.00 85 1021.8
20260830023127 16 0 0.0 0.0 0.00 0.00 0.00 84 1021.8
20260830021555 16 0 0.0 0.0 0.00 0.00 0.00 83 1021.9
20260830020109 17 0 0.0 0.0 0.00 0.00 0.00 82 1021.8
20260830014553 17 0 0.0 0.0 0.00 0.00 0.00 82 1021.9
20260830013103 17 0 0.0 0.0 0.00 0.00 0.00 81 1021.8